[[{"header":{"parameterUnit":"m.s-1","parameterCategory":1,"la1":30.2991,"la2":30.254,"lo1":-89.0895,"lo2":-89.0444,"dy":0.0017,"dx":0.0017,"nx":28,"ny":28,"refTime":"2024-12-13T09:00:00:Z","depth":0,"parameterNumber":2,"parameterNumberName":"U-component_of_WINDS"},"data":[0,0,0,0,0,0,0,0,0,0,0,0,0,0,0,0,0,0,0,0,0,0,0,0,0,0,0,0,0,0,0,0,0,0,0,0,0,0,0,0,0,0,0,0,0,0,0,0,0,0,0,0,0,0,0,0,0,0,-7.3185,-7.3186,0,-7.3221,-7.3221,-7.3222,-7.305,-7.3045,-7.304,-7.3035,-7.3072,-7.3077,-7.3083,0,0,0,0,0,0,0,0,0,0,0,0,0,-7.2969,-7.2974,-7.3185,-7.3186,-7.3186,-7.3221,-7.3221,-7.3222,-7.3051,-7.3045,-7.3039,-7.3033,-7.307,-7.3077,-7.3083,0,0,0,0,0,0,0,0,0,0,0,0,0,-7.304,-7.2975,-7.3185,-7.3105,-7.3098,-7.3221,-7.3221,-7.3222,-7.3052,-7.3045,-7.3037,-7.303,-7.3068,-7.3076,-7.3084,-7.3285,0,0,-7.311,-7.3114,0,0,0,0,0,0,0,0,-7.3036,-7.3048,-7.3117,-7.3111,-7.3104,-7.3123,-7.3158,-7.3243,-7.3054,-7.307,-7.3035,-7.3027,-7.3095,-7.3101,-7.3124,-7.3287,-7.3289,-7.3111,-7.3116,-7.312,-7.3122,0,0,0,0,0,0,0,-7.3031,-7.3045,-7.3199,-7.3118,-7.311,-7.3067,-7.3069,-7.3173,-7.3124,-7.3068,-7.3055,-7.3062,-7.309,-7.3116,-7.3123,-7.3289,-7.3111,-7.3118,-7.3123,-7.3127,-7.3618,-7.3625,0,0,0,0,0,0,-7.3037,-7.3042,-7.3198,-7.32,-7.3051,-7.3077,-7.3079,-7.3125,-7.3122,-7.3115,-7.3068,-7.3054,-7.3105,-7.3114,-7.3124,-7.3358,-7.3119,-7.3127,-7.3132,-7.361,-7.362,-7.3628,0,0,0,0,0,0,-7.3033,-7.3053,-7.3197,-7.3118,-7.3133,-7.3089,-7.3141,-7.3129,-7.3155,-7.3123,-7.3113,-7.3104,-7.31,-7.3112,-7.3246,-7.3357,-7.3131,-7.3139,-7.36,-7.3613,-7.3624,-7.3829,0,0,0,0,0,0,-7.3028,-7.3052,-7.3128,-7.3121,-7.3138,-7.3319,-7.3148,-7.3135,-7.317,-7.3151,-7.3154,-7.3147,-7.3095,-7.3235,-7.3255,-7.3364,-7.3145,-7.359,-7.3606,-7.362,-7.3812,-7.3847,-7.3876,0,0,0,0,0,-7.302,-7.3185,-7.3133,-7.3153,-7.3232,-7.3326,-7.3336,-7.3273,-7.318,-7.3255,-7.3235,-7.3147,-7.3342,-7.325,-7.3271,-7.3385,-7.3583,-7.3602,-7.3619,-7.3798,-7.384,-7.3875,0,0,0,0,0,0,-7.3206,-7.3182,-7.3125,-7.3292,-7.3312,-7.3297,-7.3391,-7.3319,-7.3367,-7.3347,-7.3267,-7.3269,-7.3417,-7.3414,-7.3312,-7.3579,-7.3446,-7.3469,-7.3575,-7.3615,-7.3646,-7.3643,-7.3152,0,0,0,0,0,-7.3267,-7.3345,-7.332,-7.347,-7.3483,-7.3436,-7.3474,-7.3424,-7.3442,-7.3449,-7.3438,-7.3459,-7.3524,-7.3569,-7.3628,-7.3811,-7.3809,-7.39,-7.3932,-7.3958,-7.3979,-7.4074,-7.4114,-7.3687,-7.3687,-7.3687,0,0,-7.3392,-7.3389,-7.3443,-7.3507,-7.3517,-7.3599,-7.3444,-7.3538,-7.3598,-7.3463,-7.3589,-7.3582,-7.36,-7.3759,-7.3828,-7.3761,-7.4096,-7.3981,-7.4003,-7.4009,-7.4097,-7.4138,-7.4174,-7.37,-7.3697,-7.3696,0,0,-7.3663,-7.3669,-7.3794,-7.3807,-7.3824,-7.3791,-7.3822,-7.3817,-7.3807,-7.3932,-7.3833,-7.3903,-7.4018,-7.4034,-7.4058,-7.4335,-7.4256,-7.4357,-7.4523,-7.4617,-7.4651,-7.468,-7.4778,-7.4814,-7.4378,-7.4378,-7.4378,0,-7.3817,-7.3937,-7.3867,-7.3968,-7.3998,-7.388,-7.4006,-7.4022,-7.4058,-7.4082,-7.4006,-7.4147,-7.4151,-7.4312,-7.438,-7.4403,-7.4434,-7.4356,-7.4652,-7.4681,-7.4707,-7.4799,-7.4836,-7.439,-7.4389,-7.4388,-7.4386,0,-7.4125,-7.421,-7.4309,-7.4346,-7.4388,-7.4501,-7.4447,-7.4498,-7.4445,-7.442,-7.4548,-7.4549,-7.4605,-7.464,-7.4588,-7.4794,-7.4751,-7.4666,-7.453,-7.4761,-7.4846,-7.4881,-7.4407,-7.4403,-7.44,-7.4397,0,0,-7.4513,-7.451,-7.4547,-7.4562,-7.4572,-7.4637,-7.4744,-7.4799,-7.4844,-7.4872,-7.496,-7.506,-7.498,-7.5007,-7.4957,-7.504,-7.5258,-7.4943,-7.4942,-7.5,-7.5483,-7.5546,-7.5588,-7.5206,-7.5212,-7.5217,-7.5481,0,-7.4777,-7.496,-7.49,-7.5085,-7.5162,-7.5052,-7.5145,-7.5161,-7.5142,-7.5204,-7.5181,-7.5253,-7.5143,-7.5158,-7.5236,-7.5215,-7.5353,-7.5195,-7.5285,-7.5289,-7.5283,-7.5633,-7.5701,-7.5949,-7.5514,-7.5519,-7.5523,0,-7.5109,-7.5151,-7.5344,-7.534,-7.5371,-7.5456,-7.5501,-7.5562,-7.5578,-7.5558,-7.5588,-7.552,-7.5624,-7.5491,-7.5633,-7.5527,-7.556,-7.5556,-7.5564,-7.5568,-7.542,-7.5646,-7.6027,-7.6064,-7.5575,-7.5571,-7.5567,0,-7.5371,-7.5476,-7.5605,-7.5621,-7.5621,-7.5683,-7.5685,-7.5694,-7.5731,-7.577,-7.5793,-7.5845,-7.5873,-7.5915,-7.5862,-7.577,-7.6012,-7.5874,-7.5997,-7.5999,-7.6052,-7.605,-7.6443,-7.6077,-7.6076,-7.6076,-7.6075,0,-7.5672,-7.5794,-7.5722,-7.5802,-7.5935,-7.5865,-7.5999,-7.5989,-7.5998,-7.6073,-7.5981,-7.6053,-7.598,-7.6045,-7.6005,-7.6128,-7.6142,-7.6128,-7.6116,-7.6136,-7.6137,-7.6155,-7.6136,-7.6085,-7.6083,-7.6081,-7.608,0,-7.5986,-7.5944,-7.6076,-7.6065,-7.6065,-7.6164,-7.6154,-7.6226,-7.62,-7.6296,-7.6314,-7.6273,-7.6345,-7.6297,-7.637,-7.6343,-7.6504,-7.6468,-7.6499,-7.6489,-7.6614,-7.6603,-7.7032,-7.7084,-7.6686,-7.669,-7.6693,0,-7.618,-7.6271,-7.627,-7.6314,-7.6322,-7.6394,-7.6431,-7.6366,-7.6408,-7.6433,-7.6503,-7.6567,-7.6614,-7.6735,-7.6711,-7.6766,-7.673,-7.6877,-7.6738,-7.6755,-7.6731,-7.6726,-7.6734,-7.6905,-7.691,-7.6913,-7.6916,0,-7.6528,-7.6502,-7.6559,-7.661,-7.6656,-7.6692,-7.6721,-7.6762,-7.6696,-7.6748,-7.6821,-7.6858,-7.6932,-7.6997,-7.7043,-7.7045,-7.697,-7.6961,-7.6992,-7.7012,-7.7025,-7.7019,-7.6574,-7.6951,-7.6947,-7.6945,-7.6943,-7.6941,-7.6787,-7.6863,-7.6873,-7.694,-7.6954,-7.6983,-7.7051,-7.7033,-7.7092,-7.7147,-7.7106,-7.7192,-7.7205,-7.7258,-7.727,-7.7336,-7.7276,-7.7322,-7.7333,-7.7345,-7.7362,-7.7017,-7.7345,-7.7344,-7.7343,-7.7342,-7.7341,0,-7.7129,-7.713,-7.7192,-7.7235,-7.7287,-7.7213,-7.7241,-7.7289,-7.7366,-7.7385,-7.7434,-7.7517,-7.758,-7.7561,-7.7617,-7.7673,-7.764,-7.769,-7.7684,-7.7686,-7.7413,-7.738,-7.7716,-7.7716,-7.7716,-7.7715,-7.7715,-7.7715,-7.7313,-7.7436,-7.7412,-7.7542,-7.7542,-7.7626,-7.7648,-7.7674,-7.7689,-7.7786,-7.7837,-7.7825,-7.7828,-7.7883,-7.7937,-7.793,-7.7954,-7.8016,-7.7997,-7.7742,-7.7705,-7.767,-7.7638,-7.8022,-7.8023,-7.8263,-7.8265,-7.8267]},{"header":{"parameterUnit":"m.s-1","parameterCategory":1,"la1":30.2991,"la2":30.254,"lo1":-89.0895,"lo2":-89.0444,"dy":0.0017,"dx":0.0017,"nx":28,"ny":28,"refTime":"2024-12-13T09:00:00:Z","depth":0,"parameterNumber":3,"parameterNumberName":"V-component_of_WINDS"},"data":[0,0,0,0,0,0,0,0,0,0,0,0,0,0,0,0,0,0,0,0,0,0,0,0,0,0,0,0,0,0,0,0,0,0,0,0,0,0,0,0,0,0,0,0,0,0,0,0,0,0,0,0,0,0,0,0,0,0,-1.0426,-1.0426,0,-1.0413,-1.0413,-1.0413,-1.0385,-1.0384,-1.0384,-1.0383,-1.037,-1.037,-1.0371,0,0,0,0,0,0,0,0,0,0,0,0,0,-1.0425,-1.0425,-1.0426,-1.0426,-1.0425,-1.0413,-1.0413,-1.0413,-1.0385,-1.0384,-1.0383,-1.0383,-1.037,-1.037,-1.0371,0,0,0,0,0,0,0,0,0,0,0,0,0,-1.042,-1.0425,-1.0426,-1.041,-1.0408,-1.0413,-1.0413,-1.0413,-1.0385,-1.0384,-1.0383,-1.0382,-1.037,-1.037,-1.0371,-1.0389,0,0,-1.0372,-1.0372,0,0,0,0,0,0,0,0,-1.042,-1.042,-1.0412,-1.0411,-1.0409,-1.04,-1.0408,-1.0405,-1.0385,-1.0394,-1.0383,-1.0382,-1.0381,-1.038,-1.038,-1.0389,-1.0388,-1.0372,-1.0372,-1.0372,-1.0372,0,0,0,0,0,0,0,-1.0421,-1.042,-1.0421,-1.0412,-1.0411,-1.0403,-1.0402,-1.0407,-1.0392,-1.0393,-1.0391,-1.039,-1.038,-1.0379,-1.0379,-1.0388,-1.0372,-1.0372,-1.0372,-1.0372,-1.041,-1.0411,0,0,0,0,0,0,-1.0423,-1.0421,-1.0421,-1.042,-1.0413,-1.0404,-1.0402,-1.0404,-1.0392,-1.039,-1.0391,-1.0389,-1.0379,-1.0379,-1.0378,-1.0398,-1.0372,-1.0372,-1.0372,-1.0409,-1.041,-1.0411,0,0,0,0,0,0,-1.0423,-1.0424,-1.0422,-1.042,-1.0419,-1.0405,-1.0407,-1.0404,-1.0403,-1.039,-1.0387,-1.0393,-1.0379,-1.0378,-1.0386,-1.0397,-1.0372,-1.0372,-1.0408,-1.0409,-1.0411,-1.0439,0,0,0,0,0,0,-1.0424,-1.0424,-1.0431,-1.042,-1.0419,-1.043,-1.0407,-1.0404,-1.0404,-1.0401,-1.0392,-1.0389,-1.0378,-1.0386,-1.0387,-1.0397,-1.0373,-1.0407,-1.0409,-1.041,-1.0437,-1.0441,-1.0444,0,0,0,0,0,-1.0424,-1.044,-1.0432,-1.0432,-1.0428,-1.0431,-1.043,-1.0417,-1.0405,-1.0412,-1.0403,-1.039,-1.0396,-1.0387,-1.0388,-1.0399,-1.0406,-1.0408,-1.041,-1.0435,-1.044,-1.0444,0,0,0,0,0,0,-1.0453,-1.0439,-1.0429,-1.0443,-1.0438,-1.0426,-1.0435,-1.0423,-1.0421,-1.0419,-1.0402,-1.04,-1.041,-1.0405,-1.0396,-1.0415,-1.0399,-1.0401,-1.0418,-1.0423,-1.0426,-1.0427,-1.0373,0,0,0,0,0,-1.0462,-1.0465,-1.0452,-1.0465,-1.0463,-1.0449,-1.045,-1.044,-1.0434,-1.0432,-1.0424,-1.042,-1.042,-1.0421,-1.0421,-1.0436,-1.0433,-1.0444,-1.0447,-1.0451,-1.0452,-1.0458,-1.0462,-1.0417,-1.0417,-1.0417,0,0,-1.0478,-1.0471,-1.0474,-1.0471,-1.0466,-1.0469,-1.0448,-1.0453,-1.0455,-1.0433,-1.044,-1.0434,-1.0427,-1.0438,-1.0443,-1.0435,-1.0464,-1.0453,-1.0456,-1.0456,-1.046,-1.0464,-1.0468,-1.0419,-1.0418,-1.0418,0,0,-1.0511,-1.0506,-1.0515,-1.0511,-1.0503,-1.0494,-1.0496,-1.0486,-1.048,-1.0487,-1.047,-1.0472,-1.0474,-1.047,-1.0468,-1.0496,-1.0483,-1.0497,-1.0516,-1.0522,-1.0525,-1.0528,-1.0537,-1.0541,-1.0499,-1.0499,-1.0499,0,-1.0533,-1.0537,-1.0522,-1.0527,-1.0526,-1.0505,-1.0514,-1.0511,-1.0504,-1.0503,-1.0494,-1.0495,-1.0489,-1.0498,-1.0505,-1.0504,-1.0505,-1.0498,-1.0526,-1.0529,-1.0532,-1.054,-1.0543,-1.05,-1.05,-1.05,-1.05,0,-1.0564,-1.0567,-1.0575,-1.0568,-1.0568,-1.0575,-1.056,-1.0562,-1.0551,-1.0542,-1.0548,-1.054,-1.0538,-1.0539,-1.0529,-1.0546,-1.0541,-1.0529,-1.0513,-1.0538,-1.0545,-1.0548,-1.0503,-1.0502,-1.0502,-1.0501,0,0,-1.0615,-1.0598,-1.0602,-1.0597,-1.0587,-1.0589,-1.0595,-1.0592,-1.0592,-1.0588,-1.0592,-1.0593,-1.0582,-1.0579,-1.0569,-1.0574,-1.0595,-1.0561,-1.0561,-1.0566,-1.0611,-1.0619,-1.0623,-1.0586,-1.0587,-1.0587,-1.0611,0,-1.0644,-1.0653,-1.0638,-1.065,-1.0652,-1.0632,-1.0636,-1.063,-1.0622,-1.0622,-1.0613,-1.0613,-1.0599,-1.0597,-1.0601,-1.0591,-1.0603,-1.059,-1.0589,-1.0589,-1.059,-1.0627,-1.0636,-1.0659,-1.0614,-1.0614,-1.0615,0,-1.0679,-1.0675,-1.0687,-1.0674,-1.0675,-1.0679,-1.0674,-1.0675,-1.0667,-1.066,-1.0657,-1.0644,-1.0647,-1.0632,-1.0636,-1.0627,-1.0626,-1.0621,-1.0621,-1.062,-1.0603,-1.0626,-1.0666,-1.0669,-1.0619,-1.0619,-1.0619,0,-1.0713,-1.0712,-1.0718,-1.0715,-1.0701,-1.0704,-1.0698,-1.069,-1.0688,-1.0684,-1.0682,-1.0679,-1.0676,-1.0674,-1.066,-1.065,-1.0665,-1.0649,-1.0659,-1.0659,-1.0663,-1.0662,-1.0702,-1.0664,-1.0664,-1.0664,-1.0663,0,-1.0747,-1.0754,-1.0733,-1.0737,-1.0744,-1.0727,-1.0735,-1.0727,-1.0719,-1.072,-1.0703,-1.0705,-1.0687,-1.0686,-1.0675,-1.0679,-1.0679,-1.0673,-1.067,-1.0674,-1.0675,-1.0672,-1.067,-1.0664,-1.0664,-1.0664,-1.0664,0,-1.0786,-1.0772,-1.0777,-1.0763,-1.0759,-1.0765,-1.0753,-1.0755,-1.0745,-1.0747,-1.0746,-1.0731,-1.0729,-1.0715,-1.071,-1.0703,-1.0711,-1.0705,-1.0713,-1.0711,-1.0721,-1.072,-1.076,-1.0764,-1.0724,-1.0725,-1.0725,0,-1.0808,-1.0813,-1.0799,-1.0798,-1.0793,-1.0792,-1.079,-1.0773,-1.0772,-1.0762,-1.0766,-1.0762,-1.0759,-1.0757,-1.0745,-1.0741,-1.0734,-1.0748,-1.0733,-1.0737,-1.0732,-1.0732,-1.0732,-1.0751,-1.0752,-1.0752,-1.0753,0,-1.0847,-1.084,-1.0837,-1.0832,-1.083,-1.0825,-1.0819,-1.0819,-1.0801,-1.08,-1.0797,-1.0794,-1.0789,-1.0785,-1.0779,-1.0772,-1.0759,-1.0757,-1.0759,-1.0763,-1.0767,-1.0764,-1.0721,-1.0756,-1.0756,-1.0756,-1.0756,-1.0755,-1.0878,-1.088,-1.087,-1.0868,-1.0861,-1.0856,-1.0857,-1.0846,-1.0844,-1.0837,-1.0828,-1.0826,-1.0817,-1.0807,-1.0801,-1.0799,-1.0792,-1.0795,-1.0796,-1.0796,-1.0798,-1.0768,-1.0798,-1.0798,-1.0798,-1.0798,-1.0798,0,-1.0915,-1.0907,-1.0905,-1.0896,-1.0894,-1.0881,-1.0873,-1.0872,-1.0871,-1.0863,-1.0859,-1.0856,-1.0852,-1.0839,-1.0834,-1.0835,-1.0828,-1.0834,-1.0833,-1.0832,-1.0806,-1.0804,-1.0839,-1.0839,-1.0839,-1.0839,-1.0839,-1.0839,-1.0934,-1.0937,-1.0928,-1.0928,-1.092,-1.0918,-1.0915,-1.0909,-1.0902,-1.0899,-1.0895,-1.0887,-1.0877,-1.087,-1.0866,-1.0862,-1.086,-1.0868,-1.0862,-1.0838,-1.0834,-1.083,-1.0828,-1.0868,-1.0868,-1.0888,-1.0888,-1.0888]}]]